• In Romania
  • List of Countries
  • For 7 days
  • Water Temperature
  • Satellite Maps
  • Weather Map
  • Weather Widgets
  • user-avatar
    Login

    Hourly Weather Skorohodovo

    Today, 25 September, Tuesday

    Time Temperature Precipitation Wind Pressure Humidity
    00:00 +5°C° 0.1 mm 6 mps 734 mmHg 91%
    01:00 +6°C° 0.1 mm 5 mps 734 mmHg 91%
    02:00 +6°C° 0 mm 4 mps 735 mmHg 92%
    03:00 +5°C° 0 mm 5 mps 736 mmHg 92%
    04:00 +5°C° 0 mm 5 mps 737 mmHg 91%
    05:00 +3°C° 0 mm 5 mps 737 mmHg 91%
    06:00 +3°C° 0 mm 5 mps 738 mmHg 90%
    07:00 +5°C° 0 mm 5 mps 739 mmHg 89%
    08:00 +5°C° 0 mm 5 mps 740 mmHg 86%
    09:00 +5°C° 0 mm 5 mps 740 mmHg 83%
    10:00 +6°C° 0 mm 5 mps 741 mmHg 80%
    11:00 +6°C° 0 mm 5 mps 742 mmHg 77%
    12:00 +7°C° 0.1 mm 5 mps 742 mmHg 73%
    13:00 +7°C° 0.1 mm 5 mps 743 mmHg 69%
    14:00 +8°C° 0 mm 5 mps 744 mmHg 66%
    15:00 +7°C° 0.1 mm 5 mps 744 mmHg 69%
    16:00 +7°C° 0.1 mm 4 mps 745 mmHg 72%
    17:00 +6°C° 0.1 mm 4 mps 745 mmHg 74%
    18:00 +5°C° 0 mm 4 mps 746 mmHg 77%
    19:00 +4°C° 0 mm 4 mps 747 mmHg 79%
    20:00 +4°C° 0 mm 3 mps 747 mmHg 81%
    21:00 +3°C° 0 mm 3 mps 748 mmHg 81%
    22:00 +3°C° 0 mm 3 mps 749 mmHg 81%
    23:00 +2°C° 0 mm 3 mps 749 mmHg 80%

    Tomorrow, 26 September, Wednesday

    Time Temperature Precipitation Wind Pressure Humidity
    00:00 +2°C° 0 mm 3 mps 750 mmHg 81%
    01:00 +2°C° 0 mm 3 mps 750 mmHg 82%
    02:00 +1°C° 0 mm 3 mps 751 mmHg 83%
    03:00 +1°C° 0 mm 3 mps 751 mmHg 85%
    04:00 +2°C° 0 mm 2 mps 751 mmHg 87%
    05:00 +2°C° 0 mm 2 mps 752 mmHg 89%
    06:00 +2°C° 0 mm 3 mps 752 mmHg 86%
    07:00 +3°C° 0 mm 3 mps 752 mmHg 82%
    08:00 +4°C° 0 mm 3 mps 752 mmHg 78%
    09:00 +5°C° 0 mm 3 mps 752 mmHg 71%
    10:00 +7°C° 0 mm 4 mps 751 mmHg 65%
    11:00 +10°C° 0 mm 4 mps 751 mmHg 58%
    12:00 +10°C° 0 mm 5 mps 751 mmHg 57%
    13:00 +10°C° 0 mm 5 mps 750 mmHg 55%
    14:00 +12°C° 0 mm 5 mps 749 mmHg 54%
    15:00 +10°C° 0.1 mm 5 mps 748 mmHg 60%
    16:00 +9°C° 0.1 mm 5 mps 748 mmHg 66%
    17:00 +8°C° 0.1 mm 6 mps 747 mmHg 71%
    18:00 +7°C° 0.8 mm 6 mps 746 mmHg 77%
    19:00 +6°C° 0.8 mm 7 mps 745 mmHg 82%
    20:00 +5°C° 0.8 mm 7 mps 744 mmHg 87%
    21:00 +5°C° 1.1 mm 8 mps 743 mmHg 88%
    22:00 +5°C° 1.1 mm 8 mps 741 mmHg 89%
    23:00 +5°C° 1.1 mm 8 mps 740 mmHg 89%

    Day after tomorrow, 27 September, Thursday

    Time Temperature Precipitation Wind Pressure Humidity
    00:00 +5°C° 0.6 mm 8 mps 739 mmHg 90%
    01:00 +5°C° 0.6 mm 8 mps 738 mmHg 90%
    02:00 +6°C° 0.6 mm 8 mps 738 mmHg 90%
    03:00 +6°C° 1.3 mm 7 mps 737 mmHg 91%
    04:00 +7°C° 1.3 mm 6 mps 737 mmHg 92%
    05:00 +7°C° 1.3 mm 5 mps 737 mmHg 93%
    06:00 +7°C° 0.3 mm 5 mps 737 mmHg 90%
    07:00 +8°C° 0.3 mm 5 mps 738 mmHg 88%
    08:00 +8°C° 0.3 mm 4 mps 738 mmHg 85%
    09:00 +9°C° 0 mm 5 mps 738 mmHg 76%
    10:00 +9°C° 0 mm 6 mps 739 mmHg 67%
    11:00 +10°C° 0 mm 6 mps 739 mmHg 58%
    12:00 +11°C° 0 mm 6 mps 739 mmHg 55%
    13:00 +11°C° 0 mm 6 mps 740 mmHg 53%
    14:00 +13°C° 0 mm 6 mps 740 mmHg 50%
    15:00 +12°C° 0 mm 5 mps 740 mmHg 55%
    16:00 +11°C° 0 mm 4 mps 740 mmHg 60%
    17:00 +10°C° 0 mm 3 mps 740 mmHg 65%
    18:00 +10°C° 0 mm 3 mps 741 mmHg 67%
    19:00 +9°C° 0 mm 3 mps 741 mmHg 69%
    20:00 +8°C° 0 mm 3 mps 741 mmHg 71%
    21:00 +8°C° 0 mm 3 mps 741 mmHg 72%
    22:00 +8°C° 0 mm 3 mps 741 mmHg 73%
    23:00 +8°C° 0 mm 3 mps 740 mmHg 74%

    28 September, Friday

    Time Temperature Precipitation Wind Pressure Humidity
    00:00 +7°C° 0.2 mm 4 mps 739 mmHg 78%
    01:00 +8°C° 0.2 mm 5 mps 738 mmHg 82%
    02:00 +9°C° 0.2 mm 6 mps 737 mmHg 86%
    03:00 +10°C° 0.3 mm 7 mps 735 mmHg 86%
    04:00 +11°C° 0.3 mm 7 mps 734 mmHg 87%
    05:00 +12°C° 0.3 mm 8 mps 733 mmHg 87%
    06:00 +12°C° 0.9 mm 8 mps 733 mmHg 88%
    07:00 +12°C° 0.9 mm 8 mps 733 mmHg 88%
    08:00 +12°C° 0.9 mm 7 mps 733 mmHg 88%
    09:00 +11°C° 0.6 mm 7 mps 734 mmHg 86%
    10:00 +10°C° 0.6 mm 7 mps 735 mmHg 84%
    11:00 +10°C° 0.6 mm 6 mps 736 mmHg 81%
    12:00 +9°C° 0.1 mm 6 mps 737 mmHg 79%
    13:00 +9°C° 0.1 mm 5 mps 738 mmHg 76%
    14:00 +8°C° 0.1 mm 4 mps 738 mmHg 73%
    15:00 +9°C° 0 mm 3 mps 739 mmHg 75%
    16:00 +8°C° 0 mm 3 mps 740 mmHg 77%
    17:00 +8°C° 0 mm 2 mps 741 mmHg 79%
    18:00 +7°C° 0 mm 2 mps 741 mmHg 82%
    19:00 +6°C° 0 mm 2 mps 742 mmHg 86%
    20:00 +5°C° 0 mm 2 mps 742 mmHg 90%
    21:00 +5°C° 0 mm 2 mps 743 mmHg 91%
    22:00 +5°C° 0 mm 2 mps 743 mmHg 92%
    23:00 +4°C° 0 mm 2 mps 744 mmHg 94%

    29 September, Saturday

    Time Temperature Precipitation Wind Pressure Humidity
    00:00 +4°C° 0 mm 2 mps 744 mmHg 95%
    01:00 +4°C° 0 mm 1 mps 745 mmHg 95%
    02:00 +4°C° 0 mm 1 mps 745 mmHg 96%
    03:00 +4°C° 0 mm 1 mps 746 mmHg 96%
    04:00 +3°C° 0 mm 1 mps 747 mmHg 95%
    05:00 +3°C° 0 mm 1 mps 747 mmHg 94%
    06:00 +3°C° 0 mm 1 mps 748 mmHg 89%
    07:00 +4°C° 0 mm 1 mps 748 mmHg 83%
    08:00 +4°C° 0 mm 2 mps 749 mmHg 78%
    09:00 +5°C° 0 mm 2 mps 749 mmHg 70%
    10:00 +7°C° 0 mm 2 mps 750 mmHg 62%
    11:00 +8°C° 0 mm 2 mps 751 mmHg 54%
    12:00 +8°C° 0 mm 2 mps 751 mmHg 52%
    13:00 +8°C° 0 mm 3 mps 751 mmHg 50%
    14:00 +9°C° 0 mm 3 mps 751 mmHg 48%
    15:00 +8°C° 0 mm 2 mps 751 mmHg 54%
    16:00 +7°C° 0 mm 2 mps 752 mmHg 59%
    17:00 +7°C° 0 mm 1 mps 752 mmHg 64%
    18:00 +6°C° 0 mm 1 mps 752 mmHg 68%
    19:00 +4°C° 0 mm 1 mps 753 mmHg 71%
    20:00 +2°C° 0 mm 0 mps 753 mmHg 75%
    21:00 +3°C° 0 mm 1 mps 753 mmHg 75%
    22:00 +3°C° 0 mm 1 mps 754 mmHg 76%
    23:00 +3°C° 0 mm 1 mps 754 mmHg 77%

    30 September, Sunday

    Time Temperature Precipitation Wind Pressure Humidity
    00:00 +2°C° 0 mm 1 mps 754 mmHg 77%
    01:00 +2°C° 0 mm 1 mps 754 mmHg 78%
    02:00 +1°C° 0 mm 2 mps 754 mmHg 78%
    03:00 +1°C° 0 mm 2 mps 754 mmHg 79%
    04:00 +1°C° 0 mm 2 mps 754 mmHg 79%
    05:00 +1°C° 0 mm 2 mps 754 mmHg 79%
    06:00 +2°C° 0 mm 2 mps 754 mmHg 74%
    07:00 +2°C° 0 mm 3 mps 754 mmHg 69%
    08:00 +3°C° 0 mm 3 mps 754 mmHg 64%
    09:00 +5°C° 0 mm 3 mps 754 mmHg 59%
    10:00 +6°C° 0 mm 4 mps 754 mmHg 53%
    11:00 +8°C° 0 mm 4 mps 753 mmHg 48%
    12:00 +8°C° 0 mm 4 mps 753 mmHg 47%
    13:00 +10°C° 0 mm 4 mps 752 mmHg 46%
    14:00 +9°C° 0 mm 5 mps 752 mmHg 44%
    15:00 +8°C° 0 mm 4 mps 751 mmHg 50%
    16:00 +8°C° 0 mm 3 mps 751 mmHg 56%
    17:00 +7°C° 0 mm 3 mps 751 mmHg 61%
    18:00 +7°C° 0 mm 3 mps 751 mmHg 65%
    19:00 +5°C° 0 mm 3 mps 750 mmHg 69%
    20:00 +4°C° 0 mm 3 mps 750 mmHg 72%
    21:00 +4°C° 0 mm 3 mps 750 mmHg 75%
    22:00 +4°C° 0 mm 3 mps 750 mmHg 77%
    23:00 +4°C° 0 mm 3 mps 750 mmHg 80%
    Show more